Weather History for Camden, AR

Change the Weather History Date:

Saturday, January 12, 2013

  Actual Average Record
Temperature  
Mean Temperature 66 °F -  
Max Temperature 75 °F 49 °F 76 °F (1960)
Min Temperature 57 °F 28 °F -2 °F (1962)
Cooling Degree Days 1    
Growing Degree Days 16 (Base 50)    
Moisture  
Dew Point 61 °F    
Average Humidity 82    
Maximum Humidity 100    
Minimum Humidity 65    
Precipitation  
Precipitation 0.63 in - - ()
Sea Level Pressure  
Sea Level Pressure 29.82 in    
Wind  
Wind Speed 5 mph (South)    
Max Wind Speed 21 mph    
Max Gust Speed 30 mph    
Visibility 7 miles    
Events Fog , Rain    
Averages and records for this station are not official NWS values.
T = Trace of Precipitation, MM = Missing Value Source: NWS Daily Summary

Daily Weather History Graph

Daily Weather History Graph

Search for Another Location

Airport:

Trip Planner

Search our weather history database for the weather conditions in past years. The results will help you decide how hot, cold, wet, or windy it might be!

Date:

Astronomy

Jan. 12, 2013 Rise Set
Actual Time 7:15 AM CST 5:23 PM CST
Civil Twilight 6:48 AM CST 5:50 PM CST
Nautical Twilight 6:18 AM CST 6:21 PM CST
Astronomical Twilight 5:48 AM CST 6:51 PM CST
Moon 7:40 AM CST (1/12) 6:46 PM CST (1/12)
Length of Visible Light 11h 01m
Length of Day
10h 07m
New Moon, 1% of the Moon is Illuminated
Jan 12
New Moon
Jan 18
First Quarter
Jan 26
Full
Feb 3
Last Quarter
Feb 10
New

Hourly Weather History & Observations

Time (CST) Temp. Dew Point Humidity Pressure Visibility Wind Dir Wind Speed Gust Speed Precip Events Conditions
12:15 AM 57.2 °F 51.8 °F 82% 29.92 in 10.0 mi Calm Calm - N/A   Overcast
12:35 AM 57.2 °F 51.8 °F 82% 29.92 in 10.0 mi Calm Calm - N/A   Overcast
12:55 AM 57.2 °F 53.6 °F 88% 29.92 in 10.0 mi Calm Calm - N/A   Overcast
1:15 AM 59.0 °F 53.6 °F 82% 29.93 in 10.0 mi Calm Calm - N/A   Overcast
1:35 AM 59.0 °F 53.6 °F 82% 29.93 in 10.0 mi Calm Calm - N/A   Overcast
1:55 AM 59.0 °F 53.6 °F 82% 29.94 in 10.0 mi Calm Calm - N/A   Overcast
2:15 AM 59.0 °F 53.6 °F 82% 29.93 in 10.0 mi Calm Calm - N/A   Overcast
2:35 AM 59.0 °F 53.6 °F 82% 29.94 in 10.0 mi Calm Calm - N/A   Overcast
3:15 AM 59.0 °F 55.4 °F 88% 29.92 in 8.0 mi Calm Calm - N/A   Overcast
3:35 AM 59.0 °F 55.4 °F 88% 29.91 in 9.0 mi Calm Calm - N/A   Overcast
3:55 AM 59.0 °F 57.2 °F 94% 29.90 in 5.0 mi SE 5.8 mph - N/A   Overcast
4:15 AM 59.0 °F 57.2 °F 94% 29.90 in 1.2 mi SE 3.5 mph - N/A   Overcast
4:35 AM 59.0 °F 57.2 °F 94% 29.90 in 0.8 mi Calm Calm - N/A   Overcast
4:55 AM 59.0 °F 57.2 °F 94% 29.89 in 0.2 mi Calm Calm - N/A Fog Fog
5:15 AM 59.0 °F 57.2 °F 94% 29.89 in 0.2 mi Calm Calm - N/A Fog Fog
5:35 AM 59.0 °F 57.2 °F 94% 29.88 in 0.2 mi Calm Calm - N/A Rain Light Rain
5:55 AM 59.0 °F 57.2 °F 94% 29.88 in 0.2 mi Calm Calm - N/A Fog Fog
6:15 AM 59.0 °F 59.0 °F 100% 29.88 in 0.2 mi Calm Calm - N/A Fog Fog
6:35 AM 59.0 °F 57.2 °F 94% 29.87 in 0.2 mi Calm Calm - N/A Fog Fog
6:55 AM 59.0 °F 59.0 °F 100% 29.88 in 0.2 mi Calm Calm - N/A Fog Fog
7:15 AM 60.8 °F 59.0 °F 94% 29.87 in 0.2 mi SE 3.5 mph - N/A Fog Fog
7:35 AM 62.6 °F 59.0 °F 88% 29.87 in 0.2 mi SE 4.6 mph - N/A Fog Fog
7:55 AM 62.6 °F 62.6 °F 100% 29.88 in 0.8 mi SSE 6.9 mph - N/A   Overcast
8:15 AM 64.4 °F 62.6 °F 94% 29.88 in 1.8 mi SSE 8.1 mph - N/A   Overcast
8:35 AM 66.2 °F 64.4 °F 94% 29.88 in 3.0 mi South 6.9 mph - N/A   Overcast
8:55 AM 66.2 °F 64.4 °F 94% 29.88 in 4.0 mi SSE 9.2 mph - N/A   Overcast
9:15 AM 68.0 °F 66.2 °F 94% 29.88 in 5.0 mi South 6.9 mph - N/A   Overcast
9:35 AM 68.0 °F 66.2 °F 94% 29.88 in 8.0 mi South 8.1 mph - N/A   Overcast
9:55 AM 71.6 °F 66.2 °F 83% 29.87 in 10.0 mi South 12.7 mph 19.6 mph N/A   Overcast
10:15 AM 71.6 °F 66.2 °F 83% 29.88 in 10.0 mi South 15.0 mph 23.0 mph N/A   Overcast
10:55 AM 73.4 °F 66.2 °F 78% 29.87 in 10.0 mi South 12.7 mph 18.4 mph N/A   Overcast
11:15 AM 71.6 °F 66.2 °F 83% 29.87 in 4.0 mi South 11.5 mph 19.6 mph 0.01 in   Haze
11:35 AM 73.4 °F 66.2 °F 78% 29.85 in 9.0 mi South 11.5 mph 18.4 mph 0.01 in   Mostly Cloudy
11:55 AM 73.4 °F 66.2 °F 78% 29.84 in 10.0 mi South 11.5 mph 21.9 mph 0.01 in   Mostly Cloudy
12:15 PM 73.4 °F 66.2 °F 78% 29.82 in 9.0 mi South 15.0 mph 20.7 mph N/A   Overcast
12:55 PM 75.2 °F 64.4 °F 69% 29.80 in 9.0 mi South 10.4 mph 18.4 mph N/A   Mostly Cloudy
1:15 PM 75.2 °F 64.4 °F 69% 29.79 in 10.0 mi South 11.5 mph 18.4 mph N/A   Scattered Clouds
1:35 PM 75.2 °F 64.4 °F 69% 29.78 in 9.0 mi South 12.7 mph 20.7 mph N/A   Scattered Clouds
1:55 PM 75.2 °F 64.4 °F 69% 29.77 in 10.0 mi South 16.1 mph 25.3 mph N/A   Mostly Cloudy
2:15 PM 75.2 °F 64.4 °F 69% 29.76 in 10.0 mi South 17.3 mph 23.0 mph N/A   Mostly Cloudy
2:35 PM 75.2 °F 62.6 °F 65% 29.75 in 9.0 mi South 20.7 mph 29.9 mph N/A   Mostly Cloudy
2:55 PM 75.2 °F 62.6 °F 65% 29.75 in 10.0 mi South 17.3 mph 20.7 mph N/A   Mostly Cloudy
3:15 PM 75.2 °F 62.6 °F 65% 29.74 in 10.0 mi SSE 17.3 mph - N/A   Overcast
3:35 PM 73.4 °F 62.6 °F 69% 29.75 in 9.0 mi South 17.3 mph 21.9 mph N/A   Overcast
3:55 PM 73.4 °F 60.8 °F 65% 29.75 in 10.0 mi South 15.0 mph 18.4 mph N/A   Overcast
4:15 PM 73.4 °F 60.8 °F 65% 29.74 in 9.0 mi South 15.0 mph 19.6 mph N/A   Overcast
4:35 PM 73.4 °F 60.8 °F 65% 29.74 in 9.0 mi South 11.5 mph 21.9 mph N/A   Overcast
4:55 PM 73.4 °F 60.8 °F 65% 29.75 in 9.0 mi South 11.5 mph - N/A   Overcast
5:15 PM 71.6 °F 62.6 °F 73% 29.75 in 6.0 mi South 10.4 mph - N/A Rain Light Rain
5:35 PM 73.4 °F 62.6 °F 69% 29.73 in 10.0 mi South 11.5 mph 18.4 mph N/A   Overcast
5:55 PM 73.4 °F 62.6 °F 69% 29.74 in 10.0 mi South 12.7 mph 18.4 mph N/A   Overcast
6:15 PM 73.4 °F 62.6 °F 69% 29.73 in 10.0 mi SSE 11.5 mph - N/A   Overcast
6:35 PM 71.6 °F 62.6 °F 73% 29.73 in 10.0 mi South 11.5 mph 24.2 mph N/A   Overcast
6:55 PM 71.6 °F 62.6 °F 73% 29.73 in 10.0 mi SSE 13.8 mph 19.6 mph N/A   Mostly Cloudy
7:15 PM 71.6 °F 62.6 °F 73% 29.73 in 10.0 mi South 12.7 mph - N/A   Mostly Cloudy
7:35 PM 71.6 °F 62.6 °F 73% 29.73 in 10.0 mi South 11.5 mph 17.3 mph N/A   Overcast
7:55 PM 69.8 °F 62.6 °F 78% 29.72 in 9.0 mi South 13.8 mph 19.6 mph N/A   Mostly Cloudy
8:15 PM 69.8 °F 64.4 °F 83% 29.73 in 10.0 mi South 10.4 mph - N/A   Mostly Cloudy
8:35 PM 68.0 °F 64.4 °F 88% 29.72 in 9.0 mi South 9.2 mph - N/A   Mostly Cloudy
8:55 PM 68.0 °F 64.4 °F 88% 29.71 in 9.0 mi South 9.2 mph - N/A   Overcast
9:15 PM 68.0 °F 64.4 °F 88% 29.71 in 7.0 mi South 9.2 mph - N/A Rain Light Rain
9:35 PM 68.0 °F 64.4 °F 88% 29.72 in 8.0 mi South 10.4 mph 17.3 mph N/A   Overcast
9:55 PM 68.0 °F 64.4 °F 88% 29.71 in 8.0 mi South 10.4 mph 16.1 mph N/A   Overcast
10:15 PM 68.0 °F 64.4 °F 88% 29.71 in 8.0 mi South 12.7 mph - N/A Rain Light Rain
10:35 PM 68.0 °F 64.4 °F 88% 29.71 in 9.0 mi SSE 11.5 mph - N/A   Overcast
10:55 PM 68.0 °F 64.4 °F 88% 29.71 in 5.0 mi South 11.5 mph - N/A Rain Light Rain
11:35 PM 64.4 °F 62.6 °F 94% 29.72 in 0.8 mi West 5.8 mph 19.6 mph 0.37 in Rain Heavy Rain
11:55 PM 64.4 °F 62.6 °F 94% 29.73 in 1.2 mi NW 4.6 mph - 0.62 in Rain Heavy Rain